Meteo Giornale » Osservazioni meteo Italia » Bergamo-Orio Al Serio

ore: 15:50 - Osservazioni Meteo Bergamo-Orio Al Serio
Lat. 45° 40' N Lon. 9° 42' E Alt. 238 metri s.l.m.

sereno Europe/Rome

11 °C

Sereno

Temp. 24 Ore

1 °C

11 °C

Nord

5.5 Km/h

Dew point 2 °C

Umidità 53 %

Visibilità  10 Km

Il sole sorge alle ore 06:44

Il sole tramonta alle ore 18:18

Data e Ora Cielo e Fenomeni T °C DP °C Um. % Pres. hPa Vis. km Vento km/h
Oggi h: 15:50 sereno Sereno 11 2 53 1015 10 N 5.5
Oggi h: 15:20 sereno Sereno 11 1 50 1015 10 S 9.3
Oggi h: 14:50 sereno Sereno 11 1 50 1015 10 S/SO 7.4
Oggi h: 14:20 sereno Sereno 11 2 53 1015 10 N 7.4
Oggi h: 13:50 sereno Sereno 10 1 53 1016 10 S/SO 9.3
Oggi h: 13:20 sereno Sereno 10 2 57 1016 10 N 7.4
Oggi h: 12:50 sereno Sereno 10 2 57 1017 10 S/SO 9.3
Oggi h: 12:20 sereno Sereno 10 1 53 1017 10 S/SO 7.4
Oggi h: 11:50 sereno Sereno 10 1 53 1017 10 S/SE 7.4
Oggi h: 11:20 sereno Sereno 9 1 57 1017 10 N 5.5
Oggi h: 10:50 sereno Sereno 9 -0 53 1017 10 N 5.5
Oggi h: 10:20 sereno Sereno 8 -0 56 1017 10 N 5.5
Oggi h: 09:50 sereno Sereno 7 0 60 1017 10 N 5.5
Oggi h: 09:20 poco_nuvoloso Poco Nuvoloso 6 1 70 1017 10 N 3.7
Oggi h: 08:50 sereno Sereno 5 1 75 1017 10 N 7.4
Oggi h: 08:20 sereno Sereno 4 0 75 1017 10 N 7.4
Oggi h: 07:50 sereno Sereno 2 -0 86 1017 10 N 7.4
Oggi h: 07:20 sereno Sereno 2 -1 80 1017 10 N 7.4
Oggi h: 05:50 sereno Sereno 1 -1 86 1017 10 N 5.5
Oggi h: 04:50 sereno Sereno 1 -1 86 1017 10 N 9.3
Oggi h: 03:50 sereno Sereno 2 -1 80 1017 10 N 7.4
Oggi h: 03:20 sereno Sereno 2 -1 80 1017 10 N 7.4
Oggi h: 02:50 sereno Sereno 3 -1 74 1018 10 N 5.5
Oggi h: 02:20 sereno Sereno 2 -0 86 1018 10 N 7.4
Oggi h: 01:50 sereno Sereno 2 -1 80 1018 10 N/NE 9.3
Oggi h: 01:20 sereno Sereno 2 -1 80 1018 10 N 11.1
Oggi h: 00:50 sereno Sereno 2 -1 80 1018 10 N/NE 9.3
Oggi h: 00:20 sereno Sereno 3 -0 80 1019 10 N/NE 7.4
Ieri h: 23:50 sereno Sereno 3 -0 80 1019 10 N 9.3
Ieri h: 23:20 sereno Sereno 3 -0 80 1019 10 N/NE 7.4
Ieri h: 22:50 sereno Sereno 3 -0 80 1019 10 N 9.3
Ieri h: 22:20 sereno Sereno 4 -0 75 1019 10 N 9.3
Ieri h: 21:50 sereno Sereno 4 -0 75 1019 10 N 9.3
Ieri h: 21:20 sereno Sereno 5 -0 70 1019 10 N 5.5
Ieri h: 20:50 sereno Sereno 4 -1 69 1019 10 N/NE 7.4
Ieri h: 20:20 sereno Sereno 5 -1 65 1019 10 N 5.5
Ieri h: 19:50 sereno Sereno 5 -1 65 1019 10 N 5.5
Ieri h: 19:20 sereno Sereno 6 -1 60 1019 10 N 3.7
Ieri h: 18:50 sereno Sereno 7 -2 52 1019 10 N 5.5
Ieri h: 18:20 sereno Sereno 8 -1 52 1019 10 S 7.4
Ieri h: 17:50 sereno Sereno 9 -2 45 1019 10 S 7.4
Ieri h: 17:20 sereno Sereno 10 -1 46 1019 10 S 7.4
Ieri h: 16:50 sereno Sereno 10 -2 42 1020 10 S 9.3
Ieri h: 15:50 sereno Sereno 10 -2 42 1021 10 N 5.5